Hourly Data Report for October 05, 2017

All times are specified in Local Standard Time (LST). Add 1 hour to adjust for Daylight Saving Time where and when it is observed.

SPRAGUE
MANITOBA

49°01'25.000" N
95°35'54.009" W
328.80 m
5022759
71449
WSU

Download Data

Hourly Data (October 2017)
Hourly Data Report for October 5, 2017
Temp Definition
°C
Dew Point Temp Definition
°C
Rel Hum Definition
%
Wind Dir Definition
10's deg

Wind Spd Definition
km/h
Visibility Definition
km
Stn Press Definition
kPa
Hmdx Definition


Wind Chill Definition


Weather Definition


TIME
00:00 3.2 2.1 92 23 6   98.00     LegendNANA
01:00 2.7 1.8 94 23 6   97.99     LegendNANA
02:00 1.8 1.3 96 21 5   97.98     LegendNANA
03:00 1.2 0.7 96 19 2   98.01     LegendNANA
04:00 0.5 0.1 97 22 4   98.01     LegendNANA
05:00 1.0 0.4 96 23 3   98.02     LegendNANA
06:00 -0.2 -0.6 97 20 3   98.02   -1 LegendNANA
07:00 -0.6 -0.9 97 0 1   98.02   -1 LegendNANA
08:00 2.1 1.6 97 27 4   98.05     LegendNANA
09:00 5.6 3.3 86 31 4   98.09     LegendNANA
10:00 10.0 3.5 64 33 14   98.07     LegendNANA
11:00 10.8 2.0 55 32 17   98.05     LegendNANA
12:00 11.9 3.4 56 34 10   98.04     LegendNANA
13:00 11.5 2.8 55 32 14   97.98     LegendNANA
14:00 13.1 2.8 49 32 15   97.95     LegendNANA
15:00 13.3 1.6 45 29 17   97.94     LegendNANA
16:00 12.9 1.9 47 32 15   97.91     LegendNANA
17:00 11.5 2.1 52 30 12   97.90     LegendNANA
18:00 7.9 1.7 65 30 8   97.90     LegendNANA
19:00 5.3 2.3 81 30 1   97.91     LegendNANA
20:00 2.8 0.9 87 30 1   97.93     LegendNANA
21:00 2.0 1.0 93 30 1   97.95     LegendNANA
22:00 0.8 0.1 95 16 1   97.93     LegendNANA
23:00 0.3 -0.3 96 17 1   97.92     LegendNANA

Notes on Data Quality.

Legend

  • E = Estimated
  • M = Missing
  • NA = Not Available
  • ‡ = Partner data that is not subject to review by the National Climate Archives
Date modified: